Simultaneous Nadir Overpasses (SNOs) Predictions

Prediction of SNOs near US between AQUA and NPP Satellite Orbit:

Table of predicted SNOs near US for the next 10.0 days since TLE Epoch: 9/18/2021
Index Date (AQUA) Time (AQUA) AQUA Lat,Lon Date (NPP) Time (NPP) NPP Lat,Lon Distance(km) Time Diff (sec)
1 09/19/2021 06:30:18 46.33, -65.04 09/19/2021 06:31:16 46.75, -67.14 167.07 58
2 09/19/2021 08:08:11 49.90, -88.35 09/19/2021 08:11:42 50.43, -90.94 193.92 211
3 09/19/2021 09:47:04 49.91,-113.07 09/19/2021 09:53:10 50.54,-116.27 238.27 366
4 09/21/2021 19:06:22 50.00, -92.56 09/21/2021 19:02:01 49.67, -94.56 148.01 261
5 09/21/2021 20:45:15 49.99,-117.28 09/21/2021 20:43:29 49.56,-119.89 193.29 106
6 09/24/2021 08:35:03 20.06,-101.88 09/24/2021 08:26:44 20.15,-102.15 29.47 499
7 09/24/2021 10:11:25 29.16,-124.38 09/24/2021 10:05:37 29.33,-125.15 77.41 348
8 09/27/2021 07:18:47 49.90, -76.00 09/27/2021 07:21:01 50.34, -78.30 171.16 134
9 09/27/2021 08:57:40 49.90,-100.72 09/27/2021 09:02:28 50.51,-103.60 215.61 288
